Location: Cagua de Las Mercedes
(10.2151°N, 67.1138°W)
Time: 09:07:38
(UTC+00:00)

Daily predictions for brighter satellites

Satellite Brightness Start Highest point End
(mag) Time Altitude Azimuth Time Altitude Azimuth Time Altitude Azimuth
Cosmos 1814 Rocket 4.1 23:03:05 10° SSW 23:08:16 88° W 23:13:31 10° NNE
Cosmos 2237 Rocket 3.7 23:05:18 10° NNE 23:08:56 18° ENE 23:12:33 10° ESE
Cosmos 2058 Rocket 3.0 23:05:17 10° S 23:09:35 73° E 23:13:53 10° N
Cosmos-2242 3.1 23:06:53 10° S 23:10:58 77° W 23:15:03 10° N
Milstar 3 3.8 23:03:49 10° W 23:11:21 39° SSW 23:17:30 10° SE
Cosmos 2219 3.4 23:07:49 10° S 23:13:12 48° ESE 23:18:34 10° NNE
IRS-1C 4.4 23:10:55 10° S 23:16:13 73° WSW 23:21:30 10° NNW
Cosmos 1076 Rocket 3.9 23:12:42 10° NNE 23:16:40 42° E 23:20:40 10° SSE
ARIANE 3 DEB 3.6 23:13:34 10° SW 23:16:55 30° S 23:20:18 10° ESE
Cosmos 1271 Rocket 3.0 23:13:59 10° SSW 23:17:13 57° W 23:20:27 10° N
USA 267 3.4 23:12:04 10° SSE 23:18:36 81° SW 23:25:08 10° NW
CZ-2D R/B 3.2 23:16:34 10° S 23:19:22 54° W 23:22:10 10° NNW
NOSS 0 Rocket 4.2 23:14:52 10° N 23:20:47 51° ENE 23:26:43 10° SSE
CARTOSAT-1 3.4 23:17:26 10° SSE 23:21:37 75° E 23:25:47 10° N
ATLAS 2A CENTAUR R/B 3.1 23:18:03 10° W 23:22:36 28° SW 23:24:49 10° SSE
YAOGAN 1 3.1 23:26:08 10° S 23:30:18 58° WSW 23:34:28 10° NNW
Cosmos 1898 Rocket 3.5 23:26:42 10° N 23:31:58 79° ENE 23:37:16 10° SSE
Ariane H10+ 3.0 23:26:45 10° W 23:33:41 37° SSW 23:37:09 15° SE
Resurs 01 Rocket 1.5 23:31:37 10° SSE 23:35:59 76° ENE 23:40:21 10° N
SPOT 5 4.3 23:34:18 14° ESE 23:36:16 18° ENE 23:39:25 10° NNE
IRS-P3 4.5 23:31:22 10° S 23:36:38 68° WSW 23:41:53 10° NNW
Cosmos 2084 3.8 23:32:50 10° N 23:36:43 42° ENE 23:39:30 17° SE
Cosmos 2279 Rocket 4.4 23:31:44 10° SSE 23:37:34 42° E 23:43:23 10° NNE
Cosmos 1766 2.6 23:39:19 10° N 23:42:24 60° E 23:44:56 14° SSE
Cosmos 1825 Rocket 4.5 23:38:18 10° NNW 23:42:34 51° W 23:46:49 10° S
SJ-6B 3.1 23:42:50 21° SE 23:44:32 34° ENE 23:47:39 10° NNE
Cosmos 2221 2.4 23:40:42 10° S 23:44:50 62° E 23:48:59 10° NNE
ARIANE 5 DEB (SYLDA) 3.2 23:42:57 10° SW 23:45:37 29° SSE 23:47:11 21° SE
SAR-Lupe-1 4.2 23:45:20 19° SSE 23:47:38 49° ENE 23:51:00 10° N
CENTAUR R/B 4.2 23:47:01 10° WSW 23:50:49 26° WNW 23:55:05 10° N
Cosmos 1092 Rocket 4.4 23:45:19 10° NNE 23:51:13 41° E 23:55:38 17° SSE
